247  
ASUS43 KIWX 200210  
RWRIWX  
 
KIWX WEATHER ROUNDUP  
NATIONAL WEATHER SERVICE NORTHERN INDIANA  
1000 PM EDT FRI AUG 19 2022  
 
NOTE: "FAIR" INDICATES FEW OR NO CLOUDS BELOW 12,000 FEET WITH NO  
SIGNIFICANT WEATHER AND/OR S TO VISIBILITY
.  
 
* THESE STATIONS ARE NOT UNDER NWS QUALITY CONTROL. THEY ALSO MAY NOT  
REPORT WEATHER SUCH AS PRECIPITATION OR FOG.
 
 
INZ001>027-200300-  
NORTHERN INDIANA  
 
CITY SKY/WX TMP DP RH WIND PRES REMARKS
 
GARY* PTCLDY 68 63 83 CALM 29.95R  
VALPARAISO MOCLDY 73 59 61 CALM 29.98R  
MICHIGAN CITY* MOCLDY 68 61 77 CALM 29.97S  
LAPORTE* MOCLDY 67 66 97 SE3 29.98R  
KNOX* MOCLDY 68 64 88 CALM 29.97R  
SOUTH BEND PTCLDY 76 59 55 SE6 29.98R  
ELKHART* PTCLDY 74 60 61 SE3 29.99S  
GOSHEN CLEAR 67 60 78 SE5 29.99R  
MONTICELLO* PTCLDY 73 57 57 CALM 29.98R  
LOGANSPORT* PTCLDY 63 61 94 SE6 29.99S  
ROCHESTER* PTCLDY 70 63 78 CALM 29.99R  
PLYMOUTH* PTCLDY 68 59 73 CALM 29.98R  
WARSAW* CLEAR 68 61 77 CALM 30.00S  
AUBURN* PTCLDY 64 61 88 CALM 30.02R  
FORT WAYNE PTCLDY 68 62 81 SE3 30.01R  
HUNTINGTON* PTCLDY N/A N/A N/A CALM 30.00S  
PERU/GRISSOM CLEAR 71 63 74 SE3 29.99R  
 

 
INZ028>050-200300-  
CENTRAL INDIANA  
 
CITY SKY/WX TMP DP RH WIND PRES REMARKS
 
LAFAYETTE PTCLDY 70 61 73 CALM 29.97R  
KOKOMO* CLEAR 67 67 100 SE3 30.01R  
MARION* MOCLDY 70 65 84 SE3 30.01R HAZE  
MUNCIE* MOCLDY 77 62 59 SE3 30.01R  
INDIANAPOLIS PTCLDY 75 62 64 S5 29.99R  
 

 
MIZ043>046-050>051-056>058-064>065-071>073-077>080-200300-  
SOUTHWEST LOWER MICHIGAN  
 
CITY SKY/WX TMP DP RH WIND PRES REMARKS
 
BATTLE CREEK CLEAR 73 63 70 SE5 30.01R  
BENTON HARBOR N/A N/A N/A N/A MISG 29.96R  
COLDWATER* PTCLDY 69 63 80 CALM 30.01R  
HILLSDALE* CLEAR 68 63 84 SE3 30.03R  
HOLLAND MOCLDY 73 63 70 SE5 29.97R  
GRAND RAPIDS PTCLDY 71 62 73 SE5 29.99R  
KALAMAZOO CLEAR 74 62 66 CALM 30.00R  
STURGIS* CLEAR 72 64 76 SE6 30.00R  
THREE RIVERS* FAIR 71 63 74 CALM 30.00R  
 

 
OHZ001>008-015>018-024>025-200300-  
NORTHWEST OHIO  
 
CITY SKY/WX TMP DP RH WIND PRES REMARKS
 
WAUSEON* FAIR 66 66 100 CALM 30.02R  
DEFIANCE CLEAR 70 64 81 CALM 30.01R  
FINDLAY CLEAR 73 63 70 E6 30.02R  
OTTAWA* CLOUDY 73 59 60 SE5 30.04R  
TOLEDO EXPRESS PTCLDY 71 63 75 SE3 30.02R  
VAN WERT* FAIR 66 61 82 CALM 30.03R  
LIMA MOCLDY 70 63 78 E6 30.03R  
 

 
AND FOR LAKE MICHIGAN COASTAL AND OPEN LAKE BUOY OBSERVATIONS  
 
STATION/POSITION TEMP WIND PRES VSBY WAVE
 
AIR SEA DIR/SP/G HT/PER  
(F) (DEG/KT/KT) (MB) (MI) (FT/S)  
CALUMET HARBOR 78 170/ 6/ 8 1012.5R  
MICHIGAN CITY 78 1013.0R  
BURNS HARBOR 77 CALM / 1 1014.9R  
SAINT JOSEPH 75 CALM / 4 1015.2  
SOUTH LAKE BUOY 73 72 130/ 10/ 12 1013.5R 1/ 3  
MICHIGAN CITY 75 N/A 1  
 

 

 
 
 
CLICK HERE TO GO TO PREVIOUS BULLETINS.

The Nexlab IN Page
The Nexlab OH Page
The Nexlab MI Page Main Text Page